Record,Date/Time,10,Freq,Alpha,dTdG,K1,K2,K3,K4,Tnd
     1,10/11/2005 00:01:02,11, 22.235, 1.079400,-253105.20,  0.36354100E+02, -0.50077974E+00,  0.21625152E-02, -0.29929683E-05, 185.96
     2,10/11/2005 00:01:02,11, 23.035, 1.076300,-269345.11, -0.30101433E+02,  0.37141337E+00, -0.15018781E-02,  0.19967815E-05, 167.06
     3,10/11/2005 00:01:02,11, 23.835, 1.072130,-303635.66,  0.13932152E+03, -0.14943800E+01,  0.52209616E-02, -0.59467052E-05, 192.38
     4,10/11/2005 00:01:02,11, 26.235, 1.059950,-312279.46,  0.37163439E+03, -0.39505005E+01,  0.13866918E-01, -0.16080899E-04, 187.52
     5,10/11/2005 00:01:02,11, 30.000, 1.035430,-426327.00, -0.19958745E+01, -0.32907695E-01,  0.30381530E-03, -0.57451149E-06,  96.45
Record,Date/Time,20,TkBB(K),Tnd(K) Ch  1,R Ch  1,Tnd(K) Ch  2,R Ch  2,Tnd(K) Ch  3,R Ch  3,Tnd(K) Ch  4,R Ch  4,Tnd(K) Ch  5,R Ch  5
     6,10/11/2005 00:01:02,21,297.015, 189.293, 0.997519, 170.733, 0.996948, 195.900, 0.994274, 190.459, 0.986660,  97.136, 0.981644
     7,10/11/2005 00:03:04,21,297.030, 186.251, 0.999573, 167.153, 0.998075, 191.187, 0.999033, 186.398, 0.997244,  95.006, 0.992345
     8,10/11/2005 00:05:04,21,297.010, 186.510, 0.998023, 168.561, 0.998627, 193.981, 0.998573, 189.408, 0.996888,  96.413, 0.988824
     9,10/11/2005 00:06:04,21,297.000, 187.948, 0.997170, 169.267, 0.998123, 193.365, 0.999084, 188.800, 0.999633,  96.230, 0.998129
    10,10/11/2005 00:07:04,21,296.999, 186.154, 0.994473, 167.912, 0.993493, 192.844, 0.994357, 188.113, 0.996006,  96.191, 0.994329
    11,10/11/2005 00:08:04,21,296.998, 187.303, 0.998479, 168.481, 0.998098, 193.276, 0.999319, 188.395, 0.999782,  96.040, 0.999323
    12,10/11/2005 00:17:04,21,296.969, 184.946, 0.986021, 165.853, 0.980981, 189.349, 0.987076, 184.089, 0.988075,  93.557, 0.990230
    13,10/11/2005 00:18:04,21,296.967, 186.843, 0.987736, 168.750, 0.985063, 193.685, 0.986467, 188.394, 0.991156,  95.823, 0.987574
    14,10/11/2005 00:20:04,21,296.954, 185.889, 0.987305, 168.157, 0.987646, 192.784, 0.989445, 187.979, 0.992287,  95.760, 0.992006
    15,10/11/2005 00:53:04,21,296.901, 182.010, 0.983775, 163.378, 0.983262, 187.495, 0.987534, 183.068, 0.991619,  93.289, 0.992040
    16,10/11/2005 00:54:04,21,296.882, 184.013, 0.987405, 164.817, 0.982571, 188.733, 0.982862, 183.639, 0.986928,  93.268, 0.989425
    17,10/11/2005 00:56:04,21,296.888, 188.368, 0.981573, 168.982, 0.984748, 193.074, 0.987528, 186.584, 0.989294,  94.391, 0.986276
    18,10/11/2005 00:57:04,21,296.891, 183.516, 0.994479, 165.502, 0.993399, 190.651, 0.994932, 186.246, 0.998860,  95.175, 0.998705
    19,10/11/2005 01:03:04,21,296.885, 184.560, 0.990926, 165.577, 0.988632, 189.875, 0.989057, 184.474, 0.990770,  93.934, 0.988817
    20,10/11/2005 01:04:04,21,296.874, 184.241, 0.987517, 165.924, 0.983094, 190.729, 0.980484, 185.905, 0.980827,  94.593, 0.981629
    21,10/11/2005 01:10:04,21,296.863, 186.868, 0.987983, 168.235, 0.984527, 192.891, 0.986716, 186.925, 0.988961,  94.939, 0.984806
    22,10/11/2005 01:11:04,21,296.862, 183.074, 0.984665, 165.203, 0.981970, 190.161, 0.985430, 186.518, 0.994386,  95.121, 0.998394
    23,10/11/2005 01:12:04,21,296.836, 183.603, 0.994024, 165.087, 0.989923, 189.628, 0.989327, 185.371, 0.991248,  94.522, 0.993162
    24,10/11/2005 01:13:04,21,296.839, 183.742, 0.998257, 165.642, 0.994630, 190.666, 0.992774, 186.290, 0.989900,  94.994, 0.983114
    25,10/11/2005 01:16:04,21,296.842, 184.406, 0.991030, 165.925, 0.990114, 190.476, 0.994000, 185.817, 0.998206,  95.040, 0.999135
    26,10/11/2005 01:18:04,21,296.838, 185.759, 0.993121, 167.477, 0.988982, 191.971, 0.990367, 187.975, 0.993182,  96.324, 0.989513
    27,10/11/2005 01:19:04,21,296.837, 187.585, 0.981542, 169.178, 0.981791, 193.677, 0.983910, 189.018, 0.990792,  96.128, 0.988891
    28,10/11/2005 01:22:04,21,296.841, 184.177, 0.993225, 165.554, 0.988527, 190.126, 0.988982, 185.630, 0.991517,  94.794, 0.992375
    29,10/11/2005 01:23:04,21,296.834, 186.103, 0.993172, 166.513, 0.989950, 190.628, 0.989543, 185.641, 0.990052,  94.773, 0.991456
    30,10/11/2005 01:25:04,21,296.833, 187.321, 0.991669, 168.293, 0.986044, 193.117, 0.985801, 187.169, 0.986883,  95.318, 0.986405
    31,10/11/2005 01:26:04,21,296.836, 185.744, 0.995134, 166.375, 0.993098, 190.818, 0.996333, 185.549, 0.998035,  94.669, 0.998516
    32,10/11/2005 01:27:04,21,296.832, 188.362, 0.996086, 168.835, 0.995151, 192.648, 0.996591, 187.263, 0.998754,  95.039, 0.998714
    33,10/11/2005 01:28:04,21,296.846, 185.824, 0.994604, 166.730, 0.992499, 190.991, 0.992353, 186.378, 0.995674,  94.821, 0.997076
    34,10/11/2005 01:29:04,21,296.855, 185.340, 0.993476, 166.041, 0.988068, 189.848, 0.986857, 184.697, 0.987753,  93.840, 0.988700
    35,10/11/2005 01:30:04,21,296.844, 186.303, 0.999192, 167.828, 0.997645, 191.849, 0.997197, 186.723, 0.999465,  95.036, 0.997346
    36,10/11/2005 01:31:04,21,296.857, 187.993, 0.991184, 169.227, 0.991334, 193.947, 0.994803, 189.217, 0.996112,  96.504, 0.993738
    37,10/11/2005 01:33:04,21,296.856, 189.669, 0.985867, 170.394, 0.983810, 194.346, 0.985025, 188.461, 0.985053,  96.270, 0.983852
    38,10/11/2005 01:34:04,21,296.845, 186.932, 0.993124, 167.747, 0.991764, 192.397, 0.995135, 187.239, 0.995756,  95.467, 0.993549
    39,10/11/2005 01:35:04,21,296.856, 187.178, 0.988458, 168.390, 0.985864, 193.278, 0.989397, 188.129, 0.993565,  96.161, 0.995408
    40,10/11/2005 01:37:05,21,296.854, 187.406, 0.992079, 168.460, 0.991616, 193.385, 0.991437, 188.804, 0.991672,  96.573, 0.982760
    41,10/11/2005 01:39:04,21,296.862, 187.294, 0.987943, 167.159, 0.982527, 191.076, 0.984230, 186.642, 0.985048,  95.308, 0.986282
    42,10/11/2005 01:40:04,21,296.868, 185.834, 0.995306, 166.530, 0.988401, 190.517, 0.983438, 185.820, 0.984079,  94.902, 0.985454
    43,10/11/2005 01:41:04,21,296.872, 187.644, 0.986845, 169.226, 0.984313, 194.406, 0.986106, 189.248, 0.990225,  96.623, 0.992546
    44,10/11/2005 01:42:04,21,296.855, 188.886, 0.994690, 169.914, 0.993156, 194.101, 0.993865, 188.309, 0.994629,  95.599, 0.991451
    45,10/11/2005 01:43:04,21,296.871, 188.208, 0.991055, 169.331, 0.987396, 193.699, 0.988748, 188.469, 0.988166,  96.296, 0.986430
    46,10/11/2005 01:44:04,21,296.870, 186.889, 0.996789, 167.193, 0.994688, 191.334, 0.994443, 186.514, 0.994870,  95.017, 0.995012
    47,10/11/2005 01:45:04,21,296.874, 186.226, 0.992595, 167.195, 0.988303, 191.330, 0.987603, 187.357, 0.991271,  95.653, 0.993922
    48,10/11/2005 01:46:04,21,296.874, 186.555, 0.999392, 167.792, 0.999137, 192.274, 0.999444, 187.714, 0.999674,  95.851, 0.999045
    49,10/11/2005 01:47:04,21,296.875, 187.269, 0.999088, 168.179, 0.998547, 192.604, 0.998883, 186.487, 0.998288,  95.087, 0.997751
    50,10/11/2005 01:48:04,21,296.862, 186.516, 0.991839, 168.024, 0.991261, 193.180, 0.991465, 188.275, 0.996811,  96.221, 0.996869
    51,10/11/2005 01:49:04,21,296.878, 186.445, 0.991087, 167.892, 0.989481, 192.722, 0.991326, 187.962, 0.994765,  95.629, 0.997068
    52,10/11/2005 01:50:04,21,296.862, 187.633, 0.988598, 168.520, 0.984448, 192.821, 0.986648, 187.614, 0.987332,  95.766, 0.992290
    53,10/11/2005 01:51:04,21,296.878, 186.452, 0.997247, 167.370, 0.992042, 191.986, 0.991707, 187.449, 0.991646,  95.967, 0.992434
    54,10/11/2005 01:52:04,21,296.888, 186.862, 0.990405, 168.469, 0.989891, 193.738, 0.991098, 189.258, 0.995498,  96.900, 0.995882
    55,10/11/2005 01:53:04,21,296.883, 188.117, 0.991178, 170.145, 0.992420, 195.345, 0.997438, 190.488, 0.997878,  97.527, 0.997025
    56,10/11/2005 01:54:04,21,296.886, 186.137, 0.991537, 167.712, 0.984408, 192.901, 0.985163, 189.171, 0.985437,  96.943, 0.988669
    57,10/11/2005 01:55:04,21,296.884, 188.186, 0.988360, 169.907, 0.988074, 194.752, 0.989769, 189.152, 0.995544,  96.694, 0.997907
    58,10/11/2005 01:56:04,21,296.891, 186.517, 0.991604, 166.696, 0.987777, 190.222, 0.989314, 184.608, 0.990337,  93.957, 0.985225
    59,10/11/2005 02:03:04,21,296.889, 188.215, 0.990734, 169.061, 0.989577, 194.544, 0.989810, 189.782, 0.988548,  97.386, 0.982958
    60,10/11/2005 02:05:04,21,296.895, 188.676, 0.987933, 170.349, 0.984149, 196.233, 0.985717, 191.699, 0.988356,  98.168, 0.985049
    61,10/11/2005 02:06:04,21,296.892, 189.308, 0.991610, 170.441, 0.990623, 195.278, 0.992891, 190.183, 0.995583,  97.204, 0.993747
    62,10/11/2005 02:08:04,21,296.890, 187.005, 0.994328, 167.957, 0.984307, 192.094, 0.982336, 187.082, 0.983462,  95.524, 0.981214
    63,10/11/2005 02:09:04,21,296.895, 187.734, 0.990900, 169.081, 0.983803, 194.191, 0.983228, 189.721, 0.984475,  97.351, 0.982236
    64,10/11/2005 02:13:04,21,296.905, 185.289, 0.986519, 165.880, 0.982716, 189.603, 0.982698, 184.039, 0.983039,  93.899, 0.981300
    65,10/11/2005 02:14:04,21,296.906, 186.792, 0.998925, 168.047, 0.999011, 192.803, 0.999451, 187.570, 0.997085,  95.537, 0.988999
    66,10/11/2005 02:15:04,21,296.881, 184.145, 0.993835, 165.219, 0.991423, 189.285, 0.991625, 184.589, 0.990626,  94.167, 0.990517
    67,10/11/2005 02:16:04,21,296.921, 185.294, 0.987862, 166.832, 0.984093, 191.090, 0.984172, 186.997, 0.991036,  95.460, 0.992080
    68,10/11/2005 02:17:04,21,296.912, 189.244, 0.991781, 169.957, 0.991512, 194.087, 0.995395, 189.173, 0.995400,  96.521, 0.993175
    69,10/11/2005 02:18:04,21,296.918, 188.658, 0.997284, 169.617, 0.995561, 194.080, 0.998037, 189.140, 0.998824,  96.598, 0.995800
    70,10/11/2005 02:19:04,21,296.913, 189.036, 0.992893, 170.018, 0.990262, 194.642, 0.993178, 189.371, 0.993046,  96.597, 0.988115
    71,10/11/2005 02:20:04,21,296.921, 188.772, 0.999942, 170.297, 0.999027, 195.692, 0.998309, 190.617, 0.999798,  97.710, 0.998363
    72,10/11/2005 02:21:04,21,296.924, 185.832, 0.998725, 167.314, 0.997869, 191.776, 0.999067, 187.572, 0.999765,  96.057, 0.998878
    73,10/11/2005 02:22:04,21,296.925, 187.534, 0.995324, 169.106, 0.995351, 194.307, 0.995309, 190.006, 0.995784,  97.277, 0.994915
    74,10/11/2005 02:23:04,21,296.918, 190.006, 0.994223, 170.359, 0.992115, 194.245, 0.993905, 188.793, 0.995371,  96.461, 0.996543
    75,10/11/2005 02:24:04,21,296.917, 186.835, 0.996493, 167.628, 0.995557, 191.933, 0.997994, 187.380, 0.997749,  95.960, 0.994313
    76,10/11/2005 02:25:04,21,296.919, 185.552, 0.997818, 166.336, 0.996127, 190.314, 0.998541, 185.687, 0.999510,  94.702, 0.997898
    77,10/11/2005 02:26:04,21,296.930, 186.605, 0.994747, 167.488, 0.991600, 191.692, 0.995235, 186.677, 0.995097,  95.279, 0.993191
    78,10/11/2005 02:27:04,21,296.911, 185.707, 0.997752, 166.383, 0.993617, 189.638, 0.994851, 184.334, 0.989623,  94.091, 0.982146
    79,10/11/2005 02:28:04,21,296.917, 185.813, 0.994433, 166.074, 0.990966, 189.517, 0.993646, 184.675, 0.993527,  93.829, 0.992075
    80,10/11/2005 02:29:04,21,296.912, 186.710, 0.997128, 167.871, 0.991931, 192.415, 0.991971, 187.980, 0.996503,  95.568, 0.998248
    81,10/11/2005 02:31:04,21,296.919, 185.681, 0.999664, 167.619, 0.998459, 192.856, 0.999330, 188.646, 0.999201,  96.665, 0.995518
    82,10/11/2005 02:32:04,21,296.915, 188.301, 0.997430, 169.103, 0.995734, 193.511, 0.996300, 188.687, 0.998588,  96.669, 0.999163
    83,10/11/2005 02:33:04,21,296.917, 189.161, 0.995379, 170.269, 0.990182, 194.669, 0.987736, 190.397, 0.988482,  97.304, 0.989213
    84,10/11/2005 02:35:04,21,296.925, 188.556, 0.991124, 168.546, 0.989753, 193.011, 0.991250, 187.387, 0.990807,  95.697, 0.987093
    85,10/11/2005 02:36:04,21,296.926, 188.487, 0.994921, 169.308, 0.993537, 193.522, 0.994265, 188.420, 0.997512,  95.945, 0.996670
    86,10/11/2005 02:37:04,21,296.934, 187.967, 0.990752, 168.865, 0.987321, 193.541, 0.988287, 188.230, 0.988458,  96.312, 0.989551
    87,10/11/2005 02:38:04,21,296.937, 186.387, 0.985336, 167.834, 0.985490, 192.763, 0.987697, 188.123, 0.989652,  95.674, 0.993259
    88,10/11/2005 02:40:04,21,296.916, 187.130, 0.996891, 167.985, 0.992065, 191.899, 0.993548, 186.432, 0.996216,  94.873, 0.996602
    89,10/11/2005 02:41:04,21,296.941, 187.324, 0.989545, 169.088, 0.986440, 194.214, 0.989372, 189.714, 0.994600,  97.146, 0.988010
    90,10/11/2005 02:42:04,21,296.945, 186.137, 0.998138, 167.346, 0.995019, 192.046, 0.994790, 187.979, 0.995430,  96.523, 0.997921
    91,10/11/2005 02:43:04,21,296.945, 187.438, 0.994743, 169.044, 0.990246, 193.618, 0.992137, 189.309, 0.995403,  97.024, 0.994756
    92,10/11/2005 02:44:04,21,296.948, 188.561, 0.998565, 169.408, 0.998171, 194.225, 0.998872, 190.266, 0.998445,  97.850, 0.994175
    93,10/11/2005 02:45:04,21,296.945, 189.565, 0.998005, 170.718, 0.996395, 195.426, 0.997733, 190.388, 0.995166,  97.498, 0.988201
    94,10/11/2005 02:46:04,21,296.945, 188.497, 0.993099, 169.267, 0.994938, 193.526, 0.998535, 188.223, 0.998877,  95.777, 0.996386
    95,10/11/2005 02:47:04,21,296.956, 187.593, 0.998555, 168.826, 0.997271, 193.011, 0.998300, 187.513, 0.998804,  95.439, 0.999042
    96,10/11/2005 02:48:04,21,296.948, 183.926, 0.996076, 166.258, 0.993823, 191.858, 0.992075, 187.938, 0.993811,  96.293, 0.995706
    97,10/11/2005 02:49:04,21,296.949, 189.210, 0.991294, 169.372, 0.993158, 193.439, 0.995747, 187.502, 0.998703,  95.229, 0.996865
    98,10/11/2005 02:50:04,21,296.942, 188.337, 0.999230, 169.763, 0.998863, 194.186, 0.998894, 188.763, 0.998282,  96.163, 0.998251
    99,10/11/2005 02:51:04,21,296.937, 187.062, 0.996864, 167.639, 0.993475, 192.160, 0.992301, 187.639, 0.992980,  95.687, 0.993495
   100,10/11/2005 02:52:04,21,296.951, 187.442, 0.992406, 169.126, 0.989324, 193.994, 0.992229, 188.644, 0.995620,  96.226, 0.993710
   101,10/11/2005 02:53:04,21,296.953, 185.964, 0.998801, 166.825, 0.996941, 191.773, 0.996164, 186.624, 0.998583,  95.425, 0.999384
   102,10/11/2005 02:54:04,21,296.939, 186.150, 0.999129, 166.825, 0.998617, 190.994, 0.998339, 185.791, 0.991959,  95.008, 0.987595
   103,10/11/2005 02:55:04,21,296.947, 186.156, 0.999177, 166.470, 0.998594, 190.513, 0.999226, 186.403, 0.997551,  95.475, 0.992686
   104,10/11/2005 02:56:04,21,296.948, 190.967, 0.989727, 170.554, 0.992207, 193.905, 0.995333, 187.736, 0.994031,  95.506, 0.992854
   105,10/11/2005 02:57:04,21,296.951, 187.574, 0.998262, 168.960, 0.996549, 193.494, 0.997227, 188.702, 0.995533,  96.288, 0.991646
   106,10/11/2005 02:58:04,21,296.937, 187.956, 0.993148, 169.280, 0.992898, 193.784, 0.996478, 188.591, 0.997023,  96.395, 0.991162
   107,10/11/2005 02:59:04,21,296.931, 189.119, 0.997504, 169.763, 0.997263, 194.100, 0.997751, 188.708, 0.996780,  96.003, 0.994752
   108,10/11/2005 03:00:04,21,296.950, 187.745, 0.992188, 169.661, 0.989147, 194.375, 0.988757, 189.498, 0.994451,  96.847, 0.996651
   109,10/11/2005 03:01:04,21,296.934, 185.689, 0.998226, 167.696, 0.997405, 192.425, 0.998407, 187.591, 0.999974,  96.128, 0.999676
   110,10/11/2005 03:02:04,21,296.925, 186.118, 0.995200, 167.581, 0.989298, 191.773, 0.989365, 186.862, 0.992218,  95.442, 0.991831
   111,10/11/2005 03:03:04,21,296.940, 186.710, 0.995815, 167.557, 0.994004, 191.268, 0.994576, 186.253, 0.994884,  95.107, 0.992828
   112,10/11/2005 03:04:04,21,296.924, 187.544, 0.995100, 169.095, 0.991231, 194.132, 0.994015, 188.526, 0.998589,  95.948, 0.993984
   113,10/11/2005 03:05:04,21,296.933, 186.540, 0.997394, 168.552, 0.997504, 193.837, 0.997859, 189.272, 0.997811,  96.676, 0.997214
   114,10/11/2005 03:06:04,21,296.925, 186.837, 0.999884, 168.458, 0.999030, 193.240, 0.999150, 188.805, 0.999639,  96.765, 0.997026
   115,10/11/2005 03:07:04,21,296.924, 187.637, 0.997523, 168.254, 0.996513, 192.689, 0.998009, 187.289, 0.997762,  95.608, 0.998200
   116,10/11/2005 03:08:04,21,296.911, 185.707, 0.997896, 166.665, 0.995065, 191.699, 0.996122, 187.024, 0.998486,  95.699, 0.999856
   117,10/11/2005 03:09:04,21,296.910, 189.510, 0.996412, 169.708, 0.998334, 193.964, 0.998932, 187.933, 0.999809,  95.706, 0.999257
   118,10/11/2005 03:10:04,21,296.909, 185.168, 0.998263, 166.166, 0.996283, 190.922, 0.996978, 186.659, 0.997992,  95.522, 0.998490
   119,10/11/2005 03:11:04,21,296.900, 187.755, 0.995255, 168.455, 0.990328, 192.269, 0.991739, 186.976, 0.992948,  95.296, 0.992027
   120,10/11/2005 03:12:04,21,296.888, 189.076, 0.995676, 169.762, 0.993276, 194.160, 0.995392, 188.359, 0.995694,  95.844, 0.994909
   121,10/11/2005 03:13:04,21,296.889, 188.056, 0.996259, 168.447, 0.995095, 192.584, 0.996006, 187.591, 0.994904,  95.292, 0.991950
   122,10/11/2005 03:14:04,21,296.893, 185.503, 0.992518, 166.996, 0.991502, 191.916, 0.992922, 187.219, 0.994903,  95.640, 0.994454
   123,10/11/2005 03:15:04,21,296.885, 187.847, 0.992430, 168.583, 0.986807, 193.185, 0.985055, 188.043, 0.984671,  95.653, 0.984681
   124,10/11/2005 03:23:04,21,296.845, 187.913, 0.983491, 168.864, 0.985716, 193.347, 0.988624, 187.633, 0.995216,  95.936, 0.993757
   125,10/11/2005 03:26:04,21,296.823, 188.701, 0.995485, 169.295, 0.991764, 193.116, 0.989725, 188.244, 0.991967,  95.651, 0.986357
   126,10/11/2005 03:27:04,21,296.832, 187.754, 0.995662, 168.820, 0.992089, 193.207, 0.989428, 188.499, 0.991489,  96.531, 0.986159
   127,10/11/2005 03:28:04,21,296.816, 186.530, 0.997726, 167.745, 0.994221, 192.961, 0.993141, 187.719, 0.992823,  95.936, 0.990904
   128,10/11/2005 03:29:04,21,296.821, 186.128, 0.993769, 167.518, 0.989964, 192.168, 0.992216, 187.445, 0.995115,  95.751, 0.994820
   129,10/11/2005 03:30:04,21,296.816, 184.294, 0.995327, 165.155, 0.989901, 189.159, 0.991666, 184.797, 0.994655,  94.245, 0.997900
   130,10/11/2005 03:31:04,21,296.818, 187.352, 0.994824, 168.506, 0.993922, 193.108, 0.993712, 187.897, 0.998049,  95.622, 0.998847
   131,10/11/2005 03:32:04,21,296.811, 183.451, 0.990644, 164.957, 0.982613, 189.566, 0.983690, 185.832, 0.984815,  95.081, 0.985678
   132,10/11/2005 03:33:04,21,296.812, 185.337, 0.993170, 166.866, 0.987957, 191.839, 0.987001, 186.840, 0.991742,  95.211, 0.994855
   133,10/11/2005 03:34:04,21,296.801, 185.330, 0.994693, 166.736, 0.991594, 191.557, 0.990348, 186.961, 0.994451,  95.309, 0.992517
   134,10/11/2005 03:35:04,21,296.817, 187.340, 0.999439, 168.407, 0.999308, 192.070, 0.999568, 187.038, 0.997107,  95.466, 0.993843
   135,10/11/2005 03:36:04,21,296.806, 187.844, 0.998133, 168.607, 0.997476, 192.225, 0.997421, 187.145, 0.995356,  95.153, 0.993052
   136,10/11/2005 03:37:04,21,296.812, 185.038, 0.994522, 165.890, 0.991725, 189.888, 0.994210, 184.972, 0.996178,  94.714, 0.997769
   137,10/11/2005 03:38:04,21,296.806, 187.564, 0.995657, 168.749, 0.993509, 192.750, 0.995987, 187.063, 0.997243,  94.870, 0.998547
   138,10/11/2005 03:39:04,21,296.799, 186.275, 0.994439, 168.243, 0.993478, 192.759, 0.997042, 188.064, 0.999819,  95.970, 0.994186
   139,10/11/2005 03:40:04,21,296.810, 186.662, 0.990886, 167.932, 0.990389, 192.490, 0.993906, 187.114, 0.996163,  95.197, 0.998194
   140,10/11/2005 03:41:04,21,296.808, 186.765, 0.991698, 167.289, 0.988874, 191.171, 0.991596, 186.323, 0.991673,  94.900, 0.991310
   141,10/11/2005 03:42:04,21,296.815, 186.672, 0.988948, 167.567, 0.986286, 192.133, 0.984869, 186.854, 0.993452,  94.662, 0.995174
   142,10/11/2005 03:43:04,21,296.812, 187.803, 0.992276, 168.932, 0.991899, 193.031, 0.993272, 186.628, 0.994233,  94.901, 0.992425
   143,10/11/2005 03:44:04,21,296.804, 184.757, 0.998145, 166.647, 0.996759, 191.305, 0.996764, 186.480, 0.996338,  95.233, 0.992105
   144,10/11/2005 03:45:04,21,296.819, 183.266, 0.989768, 165.107, 0.984876, 190.530, 0.984699, 185.980, 0.989085,  95.155, 0.991255
   145,10/11/2005 03:46:04,21,296.811, 185.493, 0.998660, 166.735, 0.998041, 190.654, 0.997575, 185.931, 0.997505,  94.712, 0.994828
   146,10/11/2005 03:47:04,21,296.833, 183.933, 0.993444, 165.607, 0.990768, 190.514, 0.993831, 186.271, 0.997853,  95.185, 0.998929
   147,10/11/2005 03:48:04,21,296.820, 186.973, 0.984288, 168.525, 0.984464, 192.667, 0.987181, 187.997, 0.991668,  95.567, 0.991823
   148,10/11/2005 03:50:04,21,296.827, 186.089, 0.992859, 167.768, 0.991049, 192.734, 0.991511, 187.859, 0.987960,  96.142, 0.982944
   149,10/11/2005 03:51:04,21,296.831, 187.431, 0.988264, 168.218, 0.986594, 192.530, 0.992090, 187.007, 0.995083,  94.940, 0.993864
   150,10/11/2005 03:55:04,21,296.839, 186.748, 0.991191, 168.853, 0.990236, 194.434, 0.994815, 189.012, 0.997217,  96.804, 0.997961
   151,10/11/2005 03:57:04,21,296.852, 187.709, 0.989839, 168.985, 0.987395, 193.748, 0.987267, 188.093, 0.989268,  95.336, 0.988783
   152,10/11/2005 03:58:04,21,296.854, 186.766, 0.989161, 168.068, 0.984432, 192.545, 0.988494, 187.204, 0.988558,  95.539, 0.985319
   153,10/11/2005 03:59:04,21,296.854, 186.049, 0.989548, 166.715, 0.988889, 190.864, 0.989796, 186.191, 0.989333,  94.941, 0.989742
   154,10/11/2005 04:01:04,21,296.877, 187.605, 0.991576, 168.904, 0.991065, 193.434, 0.989468, 188.490, 0.990929,  96.097, 0.989841
   155,10/11/2005 04:04:04,21,296.888, 184.055, 0.993016, 165.371, 0.992506, 189.531, 0.995965, 185.515, 0.997914,  94.781, 0.997184
   156,10/11/2005 04:06:04,21,296.908, 187.455, 0.988037, 168.121, 0.987934, 192.096, 0.991050, 187.390, 0.998810,  95.665, 0.998813
   157,10/11/2005 04:07:04,21,296.910, 188.423, 0.985697, 169.790, 0.987981, 194.467, 0.994592, 188.911, 0.999604,  96.102, 0.996972
   158,10/11/2005 04:08:04,21,296.907, 189.050, 0.984935, 169.604, 0.984218, 194.003, 0.986157, 188.418, 0.991580,  95.743, 0.991188
   159,10/11/2005 04:11:04,21,296.933, 184.832, 0.987693, 166.544, 0.984378, 191.562, 0.982050, 186.558, 0.982026,  94.898, 0.981477
   160,10/11/2005 05:08:04,21,296.830, 186.446, 0.990334, 167.766, 0.985649, 192.895, 0.985804, 188.791, 0.987956,  96.515, 0.985834
   161,10/11/2005 05:14:04,21,296.788, 185.919, 0.994257, 167.262, 0.989890, 191.488, 0.988878, 187.334, 0.987573,  95.677, 0.987276
   162,10/11/2005 05:16:04,21,296.782, 187.220, 0.992934, 168.860, 0.992344, 193.944, 0.995341, 189.256, 0.997448,  97.001, 0.995701
   163,10/11/2005 05:17:04,21,296.771, 188.009, 0.985800, 169.306, 0.986316, 194.446, 0.990068, 189.705, 0.997428,  96.924, 0.998186
   164,10/11/2005 05:18:04,21,296.770, 189.045, 0.988567, 170.100, 0.988261, 195.060, 0.991247, 189.511, 0.995437,  96.870, 0.991242
   165,10/11/2005 05:19:04,21,296.765, 189.665, 0.987053, 169.530, 0.986723, 193.849, 0.988788, 188.913, 0.989449,  96.141, 0.990736
   166,10/11/2005 05:20:04,21,296.766, 188.331, 0.989865, 169.706, 0.987205, 194.968, 0.987918, 190.127, 0.988294,  97.376, 0.981208
   167,10/11/2005 05:22:04,21,296.754, 188.548, 0.994655, 169.973, 0.991369, 194.645, 0.993531, 189.504, 0.990229,  96.704, 0.980588
   168,10/11/2005 05:23:04,21,296.751, 189.024, 0.994515, 170.104, 0.991366, 194.973, 0.994065, 189.249, 0.997762,  96.259, 0.996262
   169,10/11/2005 05:24:04,21,296.754, 186.549, 0.997724, 168.307, 0.995067, 193.220, 0.997485, 188.417, 0.998183,  96.159, 0.996999
   170,10/11/2005 05:25:04,21,296.755, 187.044, 0.996775, 168.143, 0.994973, 192.676, 0.997086, 187.875, 0.998896,  95.642, 0.999071
   171,10/11/2005 05:26:04,21,296.759, 187.668, 0.995422, 168.646, 0.996998, 192.906, 0.998910, 187.804, 0.998305,  95.382, 0.992508
   172,10/11/2005 05:27:04,21,296.751, 186.536, 0.998449, 167.913, 0.998136, 192.591, 0.999256, 187.602, 0.999469,  95.240, 0.995964
   173,10/11/2005 05:28:04,21,296.746, 187.073, 0.995755, 168.140, 0.997035, 192.598, 0.998739, 187.426, 0.999293,  95.710, 0.996409
   174,10/11/2005 05:29:04,21,296.747, 186.941, 0.994362, 168.157, 0.990780, 192.663, 0.992154, 187.798, 0.995686,  95.612, 0.994836
   175,10/11/2005 05:30:04,21,296.750, 185.950, 0.998647, 167.539, 0.996723, 192.325, 0.998262, 187.612, 0.998980,  95.878, 0.998271
   176,10/11/2005 05:31:04,21,296.760, 185.228, 0.997825, 166.669, 0.993770, 191.613, 0.992598, 186.657, 0.995269,  95.162, 0.997202
   177,10/11/2005 05:32:04,21,296.757, 185.893, 0.986207, 167.404, 0.984614, 192.244, 0.989331, 187.585, 0.995410,  95.710, 0.998060